Location: Leeds
(37.2390°N, 113.3580°W)
Time: 07:12:22
(UTC-06:00)

SL-08 RB Rocket - Visible Passes

Search period start: 28 June 2016 00:00
Search period end: 08 July 2016 00:00
Orbit: 648 x 686 km, 98.0° (Epoch: 28 June)

Date Brightness Start Highest point End Pass type
(mag) Time Alt. Az. Time Alt. Az. Time Alt. Az.
28 Jun 4.0 22:44:58 33° SE 22:46:37 51° ENE 22:50:59 10° N visible
29 Jun 6.1 00:23:07 12° WSW 00:23:57 13° W 00:25:58 10° WNW visible
29 Jun 5.9 21:41:05 10° ENE 21:41:55 10° ENE 21:42:44 10° NE visible
29 Jun 3.8 23:17:05 46° SSW 23:18:19 70° WSW 23:22:48 10° NNW visible
30 Jun 5.1 22:11:03 16° ESE 22:13:18 22° ENE 22:16:47 10° NNE visible
30 Jun 5.0 23:49:12 27° WSW 23:50:09 30° W 23:54:07 10° NW visible
01 Jul 4.0 22:43:10 32° SE 22:44:50 48° ENE 22:49:10 10° N visible
02 Jul 6.0 00:21:19 13° WSW 00:22:08 13° W 00:24:21 10° WNW visible
02 Jul 6.0 21:40:05 10° ENE 21:40:08 10° ENE 21:40:12 10° ENE visible
02 Jul 3.7 23:15:18 47° S 23:16:31 73° WSW 23:21:02 10° NNW visible
03 Jul 5.2 22:09:16 15° ESE 22:11:31 22° ENE 22:14:56 10° NNE visible
03 Jul 4.9 23:47:24 29° WSW 23:48:20 31° W 23:52:22 10° NW visible
04 Jul 4.1 22:41:23 31° SE 22:43:02 46° ENE 22:47:21 10° N visible
05 Jul 6.0 00:19:31 14° WSW 00:20:19 14° W 00:22:42 10° WNW visible
05 Jul 3.7 23:13:30 48° S 23:14:42 77° WSW 23:19:14 10° NNW visible
06 Jul 5.2 22:07:29 15° ESE 22:09:43 21° ENE 22:13:05 10° NNE visible
06 Jul 4.9 23:45:37 30° WSW 23:46:32 33° W 23:50:36 10° NNW visible
07 Jul 4.2 22:39:36 31° ESE 22:41:14 44° ENE 22:45:33 10° N visible
